Weather History for Atlantis, LA

Change the Weather History Date:

Thursday, January 23, 2014

  Actual Average Record
Temperature  
Mean Temperature 62 °F -  
Max Temperature 64 °F - - ()
Min Temperature 60 °F - - ()
Degree Days  
Heating Degree Days 3    
Growing Degree Days 12 (Base 50)    
Moisture  
Dew Point 46 °F    
Average Humidity 55    
Maximum Humidity 59    
Minimum Humidity 48    
Precipitation  
Precipitation 0.00 in - - ()
Sea Level Pressure  
Sea Level Pressure 30.32 in    
Wind  
Wind Speed 15 mph (ESE)    
Max Wind Speed 21 mph    
Max Gust Speed 18 mph    
Visibility 8 miles    
Events      
T = Trace of Precipitation, MM = Missing Value Source: NWS Daily Summary

Daily Weather History Graph

Daily Weather History Graph

Search for Another Location

Airport:

Trip Planner

Search our weather history database for the weather conditions in past years. The results will help you decide how hot, cold, wet, or windy it might be!

Date:

Astronomy

Jan. 23, 2014 Rise Set
Actual Time 6:49 AM CST 5:34 PM CST
Civil Twilight 6:24 AM CST 5:59 PM CST
Nautical Twilight 5:56 AM CST 6:27 PM CST
Astronomical Twilight 5:28 AM CST 6:55 PM CST
Moon No Moon Rise 11:06 AM CST (1/23)
Length of Visible Light 11h 34m
Length of Day
10h 45m
Waning Gibbous, 55% of the Moon is Illuminated
Jan 23
Waning Gibbous
Jan 23
Last Quarter
Jan 30
New
Feb 6
First Quarter
Feb 14
Full

Hourly Weather History & Observations

Time (CST) Temp. Dew Point Humidity Pressure Visibility Wind Dir Wind Speed Gust Speed Precip Events Conditions
12:15 AM 60.8 °F 41.0 °F 48% 30.24 in 8.0 mi ESE 12.7 mph - N/A   Partly Cloudy
12:35 AM 60.8 °F 42.8 °F 52% 30.24 in 7.0 mi SE 11.5 mph - N/A   Clear
12:55 AM 60.8 °F 42.8 °F 52% 30.24 in 8.0 mi SE 12.7 mph - N/A   Clear
1:15 AM 60.8 °F 41.0 °F 48% 30.25 in 8.0 mi ESE 10.4 mph 16.1 mph N/A   Partly Cloudy
1:35 AM 60.8 °F 41.0 °F 48% 30.25 in 8.0 mi ESE 11.5 mph - N/A   Partly Cloudy
1:55 AM 60.8 °F 41.0 °F 48% 30.25 in 8.0 mi ESE 11.5 mph - N/A   Partly Cloudy
2:15 AM 60.8 °F 41.0 °F 48% 30.24 in 8.0 mi ESE 11.5 mph - N/A   Partly Cloudy
2:35 AM 60.8 °F 42.8 °F 52% 30.24 in 8.0 mi ESE 12.7 mph - N/A   Partly Cloudy
2:55 AM 60.8 °F 41.0 °F 48% 30.24 in - ESE 15.0 mph - N/A   Clear
3:15 AM 60.8 °F 41.0 °F 48% 30.24 in 8.0 mi SE 15.0 mph - N/A   Partly Cloudy
3:35 AM 60.8 °F 42.8 °F 52% 30.23 in 8.0 mi ESE 15.0 mph - N/A   Partly Cloudy
3:55 AM 60.8 °F 41.0 °F 48% 30.24 in 7.0 mi ESE 16.1 mph - N/A   Clear
4:15 AM 60.8 °F 41.0 °F 48% 30.24 in 7.0 mi ESE 13.8 mph - N/A   Clear
4:35 AM 60.8 °F 42.8 °F 52% 30.25 in 7.0 mi East 11.5 mph - N/A   Clear
4:55 AM 60.8 °F 44.6 °F 55% 30.25 in 7.0 mi ESE 15.0 mph - N/A   Clear
5:15 AM 60.8 °F 42.8 °F 52% 30.25 in 8.0 mi ESE 13.8 mph - N/A   Clear
5:35 AM 60.8 °F 42.8 °F 52% 30.25 in 7.0 mi ESE 15.0 mph - N/A   Clear
5:55 AM 60.8 °F 42.8 °F 52% 30.26 in 4.0 mi ESE 13.8 mph - N/A   Haze
6:15 AM 60.8 °F 44.6 °F 55% 30.27 in 8.0 mi ESE 12.7 mph - N/A   Clear
6:35 AM 60.8 °F 44.6 °F 55% 30.27 in 8.0 mi ESE 16.1 mph - N/A   Clear
6:55 AM 60.8 °F 44.6 °F 55% 30.28 in 8.0 mi ESE 15.0 mph - N/A   Clear
7:15 AM 62.6 °F 44.6 °F 52% 30.29 in 8.0 mi ESE 17.3 mph - N/A   Clear
7:35 AM 62.6 °F 46.4 °F 55% 30.30 in 8.0 mi ESE 17.3 mph - N/A   Clear
7:55 AM 62.6 °F 46.4 °F 55% 30.30 in 7.0 mi ESE 17.3 mph - N/A   Clear
8:15 AM 62.6 °F 46.4 °F 55% 30.30 in 7.0 mi ESE 16.1 mph - N/A   Clear
8:35 AM 62.6 °F 46.4 °F 55% 30.31 in 8.0 mi ESE 18.4 mph - N/A   Clear
8:55 AM 62.6 °F 46.4 °F 55% 30.33 in 7.0 mi ESE 16.1 mph - N/A   Clear
9:15 AM 62.6 °F 46.4 °F 55% 30.34 in 8.0 mi ESE 18.4 mph - N/A   Clear
9:35 AM 62.6 °F 46.4 °F 55% 30.35 in - ESE 16.1 mph - N/A   Clear
9:55 AM 62.6 °F 46.4 °F 55% 30.35 in 7.0 mi ESE 17.3 mph - N/A   Clear
10:15 AM 62.6 °F 46.4 °F 55% 30.35 in 8.0 mi ESE 17.3 mph - N/A   Partly Cloudy
10:35 AM 62.6 °F 46.4 °F 55% 30.35 in 7.0 mi ESE 18.4 mph - N/A   Scattered Clouds
10:55 AM 62.6 °F 46.4 °F 55% 30.35 in 8.0 mi ESE 16.1 mph - N/A   Scattered Clouds
11:15 AM 62.6 °F 48.2 °F 59% 30.33 in 7.0 mi ESE 18.4 mph - N/A   Scattered Clouds
11:35 AM 62.6 °F 48.2 °F 59% 30.34 in 7.0 mi ESE 20.7 mph - N/A   Scattered Clouds
11:55 AM 62.6 °F 48.2 °F 59% 30.33 in 8.0 mi ESE 19.6 mph - N/A   Scattered Clouds
12:15 PM 62.6 °F 48.2 °F 59% 30.33 in 8.0 mi ESE 16.1 mph - N/A   Mostly Cloudy
12:35 PM 62.6 °F 48.2 °F 59% 30.33 in 8.0 mi ESE 17.3 mph - N/A   Mostly Cloudy
12:55 PM 62.6 °F 48.2 °F 59% 30.32 in 7.0 mi ESE 13.8 mph - N/A   Mostly Cloudy
1:15 PM 64.4 °F 48.2 °F 56% 30.31 in 8.0 mi ESE 15.0 mph - N/A   Mostly Cloudy
1:35 PM 62.6 °F 48.2 °F 59% 30.31 in 7.0 mi ESE 11.5 mph 18.4 mph N/A   Partly Cloudy
1:55 PM 64.4 °F 48.2 °F 56% 30.31 in 7.0 mi ESE 12.7 mph - N/A   Scattered Clouds
2:15 PM 64.4 °F 48.2 °F 56% 30.31 in 7.0 mi East 13.8 mph - N/A   Scattered Clouds
2:35 PM 64.4 °F 48.2 °F 56% 30.32 in 7.0 mi East 11.5 mph - N/A   Scattered Clouds
2:55 PM 64.4 °F 48.2 °F 56% 30.32 in 8.0 mi East 13.8 mph - N/A   Scattered Clouds
3:15 PM 64.4 °F 48.2 °F 56% 30.32 in 7.0 mi East 12.7 mph - N/A   Mostly Cloudy
3:35 PM 64.4 °F 48.2 °F 56% 30.32 in 8.0 mi East 13.8 mph - N/A   Scattered Clouds
3:55 PM 64.4 °F 48.2 °F 56% 30.32 in 8.0 mi East 12.7 mph - N/A   Partly Cloudy
4:15 PM 64.4 °F 48.2 °F 56% 30.33 in 8.0 mi East 13.8 mph - N/A   Clear
4:35 PM 64.4 °F 48.2 °F 56% 30.33 in 7.0 mi East 16.1 mph - N/A   Clear
4:55 PM 64.4 °F 48.2 °F 56% 30.32 in 7.0 mi East 17.3 mph - N/A   Clear
5:15 PM 64.4 °F 48.2 °F 56% 30.32 in 7.0 mi East 19.6 mph - N/A   Clear
5:35 PM 64.4 °F 48.2 °F 56% 30.32 in 8.0 mi East 20.7 mph - N/A   Clear
5:55 PM 64.4 °F 48.2 °F 56% 30.33 in 7.0 mi East 18.4 mph - N/A   Clear
6:15 PM 64.4 °F 48.2 °F 56% 30.34 in 7.0 mi East 20.7 mph - N/A   Mostly Cloudy
6:35 PM 64.4 °F 48.2 °F 56% 30.34 in 7.0 mi East 19.6 mph - N/A   Overcast
6:55 PM 64.4 °F 48.2 °F 56% 30.35 in 8.0 mi East 20.7 mph - N/A   Overcast
7:15 PM 64.4 °F 48.2 °F 56% 30.35 in 7.0 mi East 20.7 mph - N/A   Overcast
7:35 PM 64.4 °F 50.0 °F 59% 30.36 in 7.0 mi East 19.6 mph - N/A   Overcast
7:55 PM 64.4 °F 48.2 °F 56% 30.38 in 7.0 mi East 19.6 mph - N/A   Overcast
8:15 PM 64.4 °F 50.0 °F 59% 30.38 in 7.0 mi East 19.6 mph - N/A   Overcast
8:35 PM 64.4 °F 50.0 °F 59% 30.37 in 7.0 mi East 19.6 mph - N/A   Overcast
8:55 PM 64.4 °F 50.0 °F 59% 30.38 in 7.0 mi East 19.6 mph - N/A   Overcast
9:15 PM 64.4 °F 48.2 °F 56% 30.39 in 8.0 mi East 18.4 mph - N/A   Overcast
9:35 PM 64.4 °F 48.2 °F 56% 30.39 in 7.0 mi East 17.3 mph - N/A   Mostly Cloudy
9:55 PM 64.4 °F 48.2 °F 56% 30.40 in 8.0 mi East 17.3 mph - N/A   Mostly Cloudy
10:15 PM 64.4 °F 48.2 °F 56% 30.40 in 8.0 mi East 17.3 mph - N/A   Mostly Cloudy
10:35 PM 64.4 °F 50.0 °F 59% 30.41 in 7.0 mi ESE 17.3 mph - N/A   Mostly Cloudy
10:55 PM 64.4 °F 50.0 °F 59% 30.41 in 7.0 mi East 18.4 mph - N/A   Overcast
11:15 PM 64.4 °F 50.0 °F 59% 30.41 in 8.0 mi East 17.3 mph - N/A   Overcast
11:35 PM 64.4 °F 48.2 °F 56% 30.41 in 8.0 mi East 18.4 mph - N/A   Mostly Cloudy
11:55 PM 64.4 °F 50.0 °F 59% 30.40 in 8.0 mi East 18.4 mph - N/A   Mostly Cloudy